Stations météo

Publicité
Braemar, Grande-Bretagne (99089): Température de l'air & dewpoint: 14.08.2019 13:00:00 - 20.08.2019 13:00:00 (BST)Braemar, Grande-Bretagne (99089): Température de l'air -20cm & Température de l'air -100cm: 14.08.2019 13:00:00 - 20.08.2019 13:00:00 (BST)Braemar, Grande-Bretagne (99089): Quantités de précipitations: 14.08.2019 13:00:00 - 20.08.2019 13:00:00 (BST)
Date & Time tt [°C] td [°C] tt -20cm [°C] tt -100cm [°C] rr [mm]
20.08.2019 13:00:00 - - - - -
20.08.2019 12:00:00 14,7 7,3 - - 0,0
20.08.2019 11:00:00 13,5 6,6 - - 0,0
20.08.2019 10:00:00 12,2 8,3 13,7 13,5 0,0
20.08.2019 09:00:00 10,5 8,6 - - 0,0
20.08.2019 08:00:00 9,6 8,7 - - 0,0
20.08.2019 07:00:00 9,2 8,1 - - 0,2
20.08.2019 06:00:00 9,6 8,2 - - 0,0
20.08.2019 05:00:00 9,8 8,3 - - 0,0
20.08.2019 04:00:00 9,7 8,2 - - 0,0
20.08.2019 03:00:00 9,6 8,2 - - 0,0
20.08.2019 02:00:00 10,1 7,9 - - 0,0
20.08.2019 01:00:00 10,4 8,5 - - 0,0
20.08.2019 00:00:00 10,5 8,9 - - 0,0
19.08.2019 23:00:00 10,3 8,9 - - 0,0
19.08.2019 22:00:00 10,8 9,3 - - 0,0
19.08.2019 21:00:00 11,0 9,6 - - 0,0
19.08.2019 20:00:00 11,4 9,5 - - 0,0
19.08.2019 19:00:00 12,3 9,0 - - 0,0
19.08.2019 18:00:00 13,5 8,8 - - 0,0
19.08.2019 17:00:00 14,8 8,1 - - 0,0
19.08.2019 16:00:00 14,3 8,4 - - 0,0
19.08.2019 15:00:00 14,4 8,6 - - 0,0
19.08.2019 14:00:00 13,4 9,8 - - 0,2
19.08.2019 13:00:00 13,7 8,2 - - 0,0
19.08.2019 12:00:00 14,6 7,9 - - 0,0
19.08.2019 11:00:00 14,4 9,6 - - 0,0
19.08.2019 10:00:00 12,9 9,2 13,9 13,7 0,0
19.08.2019 09:00:00 12,0 9,7 - - 0,0
19.08.2019 08:00:00 11,5 8,9 - - 0,0
19.08.2019 07:00:00 10,5 8,2 - - 0,0
19.08.2019 06:00:00 10,1 7,3 - - 0,0
19.08.2019 05:00:00 9,4 7,0 - - 0,0
19.08.2019 04:00:00 9,0 6,7 - - 0,0
19.08.2019 03:00:00 9,3 6,9 - - 0,0
19.08.2019 02:00:00 9,9 7,1 - - 0,0
19.08.2019 01:00:00 10,3 7,4 - - 0,0
19.08.2019 00:00:00 10,9 8,0 - - 0,0
18.08.2019 23:00:00 11,6 8,3 - - 0,0
18.08.2019 22:00:00 11,8 8,7 - - 0,0
18.08.2019 21:00:00 11,7 8,7 - - 0,0
18.08.2019 20:00:00 12,3 8,9 - - 0,0
18.08.2019 19:00:00 12,8 9,5 - - 0,0
18.08.2019 18:00:00 13,4 11,0 - - 0,4
18.08.2019 17:00:00 11,9 10,2 - - 1,4
18.08.2019 16:00:00 12,6 9,8 - - 0,4
18.08.2019 15:00:00 14,9 10,2 - - 0,0
18.08.2019 14:00:00 14,4 10,4 - - 0,2
18.08.2019 13:00:00 14,7 10,2 - - 0,6
18.08.2019 12:00:00 13,3 10,3 - - 0,6
18.08.2019 11:00:00 12,5 9,3 - - 0,4
18.08.2019 10:00:00 12,4 11,2 14,0 13,7 0,8
18.08.2019 09:00:00 11,2 9,7 - - 0,4
18.08.2019 08:00:00 11,1 9,8 - - 0,2
18.08.2019 07:00:00 10,9 9,6 - - 0,0
18.08.2019 06:00:00 11,1 9,5 - - 0,4
18.08.2019 05:00:00 11,1 9,4 - - 0,0
18.08.2019 04:00:00 11,3 9,0 - - 0,0
18.08.2019 03:00:00 11,2 9,1 - - 0,0
18.08.2019 02:00:00 11,4 9,0 - - 0,0
18.08.2019 01:00:00 11,6 8,2 - - 0,2
18.08.2019 00:00:00 11,5 8,8 - - 0,0
17.08.2019 23:00:00 11,7 8,0 - - 0,0
17.08.2019 22:00:00 11,5 7,8 - - 0,0
17.08.2019 21:00:00 11,3 6,9 - - 0,0
17.08.2019 20:00:00 12,6 6,8 - - 0,0
17.08.2019 19:00:00 13,1 7,8 - - 0,0
17.08.2019 18:00:00 14,5 6,9 - - 0,0
17.08.2019 17:00:00 13,7 6,1 - - 0,0
17.08.2019 16:00:00 15,0 5,6 - - 0,0
17.08.2019 15:00:00 14,9 6,7 - - 0,0
17.08.2019 14:00:00 13,9 7,1 - - 0,0
17.08.2019 13:00:00 11,5 7,6 - - 1,0
17.08.2019 12:00:00 12,7 6,4 - - 0,0
17.08.2019 11:00:00 13,4 6,3 - - 0,0
17.08.2019 10:00:00 12,9 7,0 14,2 13,7 0,0
17.08.2019 09:00:00 12,5 8,2 - - 0,0
17.08.2019 08:00:00 10,8 8,0 - - 0,0
17.08.2019 07:00:00 11,0 9,0 - - 0,0
17.08.2019 06:00:00 11,0 10,9 - - 0,2
17.08.2019 05:00:00 10,1 10,0 - - 0,0
17.08.2019 04:00:00 9,3 9,2 - - 0,8
17.08.2019 03:00:00 8,3 8,1 - - 0,0
17.08.2019 02:00:00 8,8 8,2 - - 0,0
17.08.2019 01:00:00 10,1 9,5 - - 0,0
17.08.2019 00:00:00 11,2 10,3 - - 0,0
16.08.2019 23:00:00 12,6 12,2 - - 0,4
16.08.2019 22:00:00 13,5 12,6 - - 0,0
16.08.2019 21:00:00 14,6 12,3 - - 0,0
16.08.2019 20:00:00 15,6 11,6 - - 0,0
16.08.2019 19:00:00 15,7 11,4 - - 0,0
16.08.2019 18:00:00 16,4 11,7 - - 0,0
16.08.2019 17:00:00 14,4 11,9 - - 0,2
16.08.2019 16:00:00 17,2 13,5 - - 0,0
16.08.2019 15:00:00 15,9 14,1 - - 0,2
16.08.2019 14:00:00 15,4 14,2 - - 0,2
16.08.2019 13:00:00 14,1 12,8 - - 0,6
16.08.2019 12:00:00 13,8 12,4 - - 1,0
16.08.2019 11:00:00 13,7 12,7 - - 0,8
16.08.2019 10:00:00 13,3 11,8 14,0 13,7 1,0
16.08.2019 09:00:00 13,0 11,7 - - 1,4
16.08.2019 08:00:00 13,4 11,8 - - 2,2
16.08.2019 07:00:00 12,6 11,5 - - 1,8
16.08.2019 06:00:00 12,9 10,8 - - 0,0
16.08.2019 05:00:00 13,8 10,4 - - 0,0
16.08.2019 04:00:00 12,8 10,5 - - 0,0
16.08.2019 03:00:00 11,9 9,9 - - 0,0
16.08.2019 02:00:00 11,4 9,4 - - 0,0
16.08.2019 01:00:00 11,7 8,9 - - 0,0
16.08.2019 00:00:00 11,4 8,8 - - 0,0
15.08.2019 23:00:00 10,5 7,6 - - 0,0
15.08.2019 22:00:00 11,2 7,2 - - 0,0
15.08.2019 21:00:00 11,7 6,8 - - 0,0
15.08.2019 20:00:00 13,2 5,8 - - 0,0
15.08.2019 19:00:00 14,1 5,5 - - 0,0
15.08.2019 18:00:00 15,0 5,6 - - 0,0
15.08.2019 17:00:00 14,0 6,6 - - 0,0
15.08.2019 16:00:00 15,1 5,7 - - 0,0
15.08.2019 15:00:00 14,2 5,3 - - 0,0
15.08.2019 14:00:00 14,5 5,2 - - 0,0
15.08.2019 13:00:00 14,5 8,7 - - 0,0
15.08.2019 12:00:00 12,8 8,6 - - 0,0
15.08.2019 11:00:00 13,2 9,6 - - 0,0
15.08.2019 10:00:00 13,7 10,8 14,0 14,0 0,0
15.08.2019 09:00:00 13,0 11,6 - - 0,0
15.08.2019 08:00:00 12,5 11,4 - - 0,0
15.08.2019 07:00:00 10,5 9,9 - - 0,0
15.08.2019 06:00:00 10,5 10,2 - - 0,0
15.08.2019 05:00:00 9,9 9,5 - - 0,0
15.08.2019 04:00:00 10,0 9,7 - - 0,0
15.08.2019 03:00:00 12,0 11,8 - - 0,2
15.08.2019 02:00:00 12,2 11,9 - - 0,8
15.08.2019 01:00:00 12,0 11,6 - - 0,8
15.08.2019 00:00:00 12,4 11,6 - - 1,0
14.08.2019 23:00:00 13,0 11,5 - - 0,0
14.08.2019 22:00:00 12,1 11,2 - - 0,0
14.08.2019 21:00:00 11,9 11,0 - - 0,0
14.08.2019 20:00:00 11,9 10,9 - - 0,0
14.08.2019 19:00:00 12,7 10,1 - - 0,0
14.08.2019 18:00:00 13,9 8,8 - - 0,0
14.08.2019 17:00:00 14,5 9,0 - - 0,0
14.08.2019 16:00:00 14,3 8,4 - - 0,0
14.08.2019 15:00:00 14,5 9,4 - - 0,0
14.08.2019 14:00:00 12,0 10,1 - - 0,0
14.08.2019 13:00:00 11,2 9,8 - - 1,0

tt = Température de l'air
td = dewpoint
tt -20cm = Température de l'air -20cm
tt -100cm = Température de l'air -100cm
rr = Quantités de précipitations

stations d'obs. à proximité